FW8458 Weather Reports


time (UTC)temp
C
wind
direction
speed
KPH
gust
KPH
rain 1hr
cm
rain 24hr
cm
rain mn
cm
humidity
%
barometer
mb
20260505122039 16 211 1.6 8.0 0.00 0.00 0.00 75
20260505121019 15 149 0.0 6.4 0.00 0.00 0.00 77
20260505120019 16 248 1.6 9.7 0.00 0.00 0.00 75
20260505115020 16 99 3.2 11.3 0.00 0.00 0.00 71
20260505114019 16 217 3.2 11.3 0.00 0.00 0.00 69
20260505113020 15 229 0.0 4.8 0.00 0.00 0.00 73
20260505112019 13 60 0.0 3.2 0.00 0.00 0.00 76
20260505111020 13 58 0.0 3.2 0.00 0.00 0.00 77
20260505102021 11 286 0.0 1.6 0.00 0.00 0.00 82
20260505101022 11 242 0.0 4.8 0.00 0.00 0.00 81
20260505100018 11 320 0.0 3.2 0.00 0.00 0.00 81
20260505095018 12 282 1.6 4.8 0.00 0.00 0.00 79
20260505094059 12 336 0.0 3.2 0.00 0.00 0.00 80
20260505093019 12 39 0.0 4.8 0.00 0.00 0.00 80
20260505092041 12 0.0 0.0 0.00 0.00 0.00 79
20260505091019 12 296 0.0 4.8 0.00 0.00 0.00 76
20260505090020 13 305 0.0 3.2 0.00 0.00 0.00 74
20260505085020 14 67 0.0 4.8 0.00 0.00 0.00 70
20260505084020 15 49 0.0 3.2 0.00 0.00 0.00 67
20260505083018 16 59 0.0 3.2 0.00 0.00 0.00 62
20260505082017 16 214 1.6 11.3 0.00 0.00 0.00 61
20260505081017 16 248 1.6 6.4 0.00 0.00 0.00 59
20260505080018 17 243 1.6 6.4 0.00 0.00 0.00 58
20260505075021 17 226 1.6 8.0 0.00 0.00 0.00 58
20260505074019 17 272 1.6 6.4 0.00 0.00 0.00 56
20260505073038 17 245 3.2 11.3 0.00 0.00 0.00 55
20260505072018 17 273 1.6 8.0 0.00 0.00 0.00 55
20260505071039 17 222 1.6 9.7 0.00 0.00 0.00 55
20260505070019 17 225 4.8 11.3 0.00 0.00 0.00 55
20260505065021 17 230 3.2 8.0 0.00 0.00 0.00 55
20260505064041 17 245 3.2 12.9 0.00 0.00 0.00 54
20260505063019 17 216 1.6 12.9 0.00 0.00 0.00 55
20260505062021 16 232 3.2 11.3 0.00 0.00 0.00 55
20260505061040 16 217 3.2 11.3 0.00 0.00 0.00 56
20260505060103 15 183 1.6 8.0 0.00 0.00 0.00 58
20260505055020 15 30 0.0 4.8 0.00 0.00 0.00 57
20260505054017 15 236 1.6 6.4 0.00 0.00 0.00 57
20260505053018 15 286 0.0 1.6 0.00 0.00 0.00 59
20260505052020 15 0.0 0.0 0.00 0.00 0.00 58
20260505051021 15 5 1.6 4.8 0.00 0.00 0.00 58
20260505041020 16 147 0.0 3.2 0.00 0.00 0.00 54
20260505040020 17 224 0.0 4.8 0.00 0.00 0.00 52
20260505035018 17 55 0.0 3.2 0.00 0.00 0.00 51
20260505034039 18 216 1.6 8.0 0.00 0.00 0.00 49
20260505033100 18 225 3.2 11.3 0.00 0.00 0.00 49
20260505032017 18 245 4.8 12.9 0.00 0.00 0.00 49
20260505031019 18 220 4.8 14.5 0.00 0.00 0.00 49
20260505030021 18 252 3.2 8.0 0.00 0.00 0.00 49
20260505025022 18 232 3.2 12.9 0.00 0.00 0.00 48
20260505024018 18 217 3.2 9.7 0.00 0.00 0.00 48
20260505023101 18 236 3.2 9.7 0.00 0.00 0.00 47
20260505022018 18 230 1.6 6.4 0.00 0.00 0.00 47
20260505021018 18 235 1.6 6.4 0.00 0.00 0.00 46
20260505020018 18 157 3.2 11.3 0.00 0.00 0.00 45
20260505015021 19 242 1.6 9.7 0.00 0.00 0.00 45
20260505014018 19 271 1.6 6.4 0.00 0.00 0.00 44
20260505013020 19 261 3.2 11.3 0.00 0.00 0.00 44
20260505012041 19 231 4.8 12.9 0.00 0.00 0.00 43
20260505011019 19 238 4.8 12.9 0.00 0.00 0.00 43
20260505010039 19 185 1.6 11.3 0.00 0.00 0.00 44
20260505005019 19 260 3.2 11.3 0.00 0.00 0.00 43
20260505004019 19 214 3.2 9.7 0.00 0.00 0.00 43
20260505003039 20 261 1.6 6.4 0.00 0.00 0.00 43
20260505002021 20 267 1.6 6.4 0.00 0.00 0.00 43
20260505001022 20 257 0.0 4.8 0.00 0.00 0.00 42
20260505000020 20 248 1.6 6.4 0.00 0.00 0.00 41
20260504235017 21 207 3.2 11.3 0.00 0.00 0.00 40
20260504234018 21 215 4.8 11.3 0.00 0.00 0.00 39
20260504233021 21 194 3.2 12.9 0.00 0.00 0.00 39
20260504232018 21 234 1.6 9.7 0.00 0.00 0.00 38
20260504231038 21 221 6.4 16.1 0.00 0.00 0.00 38
20260504230018 21 236 4.8 12.9 0.00 0.00 0.00 38
20260504225039 22 237 8.0 17.7 0.00 0.00 0.00 38
20260504224020 22 220 6.4 12.9 0.00 0.00 0.00 37
20260504223019 22 234 3.2 9.7 0.00 0.00 0.00 38
20260504222018 22 206 6.4 19.3 0.00 0.00 0.00 37
20260504221039 22 162 4.8 11.3 0.00 0.00 0.00 37
20260504220039 22 227 4.8 16.1 0.00 0.00 0.00 37
20260504215019 21 240 3.2 9.7 0.00 0.00 0.00 38
20260504214017 21 206 4.8 16.1 0.00 0.00 0.00 39
20260504213038 22 246 6.4 17.7 0.00 0.00 0.00 38
20260504212017 22 259 4.8 14.5 0.00 0.00 0.00 38
20260504211020 21 201 4.8 12.9 0.00 0.00 0.00 38
20260504210020 22 199 3.2 12.9 0.00 0.00 0.00 38
20260504205019 21 236 6.4 14.5 0.00 0.00 0.00 38
20260504204018 21 204 6.4 17.7 0.00 0.00 0.00 39
20260504203018 21 245 8.0 19.3 0.00 0.00 0.00 39
20260504202038 21 214 8.0 16.1 0.00 0.00 0.00 39
20260504201018 21 254 6.4 17.7 0.00 0.00 0.00 39
20260504200018 21 250 6.4 14.5 0.00 0.00 0.00 39
20260504195020 21 263 8.0 19.3 0.00 0.00 0.00 39
20260504194018 21 267 8.0 19.3 0.00 0.00 0.00 40
20260504193019 21 208 6.4 16.1 0.00 0.00 0.00 40
20260504192018 21 234 6.4 16.1 0.00 0.00 0.00 41
20260504191019 21 227 9.7 19.3 0.00 0.00 0.00 40
20260504190020 21 254 9.7 22.5 0.00 0.00 0.00 40
20260504185019 20 235 6.4 16.1 0.00 0.00 0.00 42
20260504184039 20 236 8.0 14.5 0.00 0.00 0.00 41
20260504183042 20 222 6.4 16.1 0.00 0.00 0.00 43
20260504182041 20 220 4.8 11.3 0.00 0.00 0.00 42
20260504181020 20 228 9.7 19.3 0.00 0.00 0.00 42
20260504180020 19 253 6.4 14.5 0.00 0.00 0.00 43
20260504175017 19 259 6.4 16.1 0.00 0.00 0.00 43
20260504174059 19 265 9.7 17.7 0.00 0.00 0.00 42
20260504173020 19 220 8.0 17.7 0.00 0.00 0.00 43
20260504172018 19 226 4.8 14.5 0.00 0.00 0.00 44
20260504171021 18 243 6.4 14.5 0.00 0.00 0.00 44
20260504151021 15 263 8.0 19.3 0.00 0.00 0.00 47
20260504141018 13 251 6.4 12.9 0.00 0.00 0.00 49